22 maggio 2022

Tempo Codice Tempo metereologico Temp. Vista Nuvole Vento METAR/SPECI
08:30
V
18 °C 10 km+ - 170°   170° 5 kt METAR LFBZ 220630Z AUTO 17005KT 140V210 CAVOK 18/17 Q1012 NOSIG
08:00
V
18 °C 10 km+ - 160°   160° 4 kt METAR LFBZ 220600Z AUTO 16004KT 110V190 CAVOK 18/17 Q1012 NOSIG
07:30
V
18 °C 10 km+ 15.000 ft Var   Var 4 kt METAR LFBZ 220530Z AUTO VRB04KT 9999 FEW064 SCT130 BKN150 18/17 Q1013 NOSIG
07:00
V
17 °C 10 km+ - 360°   360° 2 kt METAR LFBZ 220500Z AUTO 36002KT CAVOK 17/16 Q1013 TEMPO BKN005
06:30
I
17 °C 10 km+ 800 ft 300°   300° 4 kt METAR LFBZ 220430Z AUTO 30004KT 9999 BKN008 BKN150 BKN180 17/16 Q1014 BECMG NSC
06:00
V
18 °C 10 km+ 16.000 ft 310°   310° 4 kt METAR LFBZ 220400Z AUTO 31004KT 260V360 9999 FEW009 BKN160 BKN210 18/17 Q1014 BECMG OVC005
05:30
V
18 °C 10 km+ 20.000 ft 260°   260° 4 kt METAR LFBZ 220330Z AUTO 26004KT 170V300 9999 FEW007 SCT170 BKN200 18/17 Q1014 BECMG OVC005
05:00
V
18 °C 10 km+ - Var   Var 2 kt METAR LFBZ 220300Z AUTO VRB02KT CAVOK 18/17 Q1014 BECMG OVC005
04:30
V
18 °C 10 km+ - 250°   250° 8 kt METAR LFBZ 220230Z AUTO 25008KT 200V290 CAVOK 18/17 Q1015 BECMG OVC005
04:00
V
17 °C 10 km+ 20.000 ft 240°   240° 5 kt METAR LFBZ 220200Z AUTO 24005KT 190V280 9999 FEW005 BKN200 17/16 Q1014 BECMG OVC005
03:30
I
17 °C 10 km+ 500 ft 250°   250° 5 kt METAR LFBZ 220130Z AUTO 25005KT 200V300 9999 BKN005 BKN200 BKN230 17/17 Q1014 NOSIG
03:00
I
18 °C 10 km+ 500 ft 260°   260° 11 kt METAR LFBZ 220100Z AUTO 26011KT 220V280 9999 OVC005 18/17 Q1015 BECMG 11005KT NSC
02:30
I
18 °C 10 km+ 600 ft 260°   260° 12 kt METAR LFBZ 220030Z AUTO 26012KT 220V290 9999 OVC006 18/17 Q1015 BECMG 11005KT NSC
02:00
I
18 °C 10 km+ 600 ft 260°   260° 16 kt METAR LFBZ 220000Z AUTO 26016KT 9999 OVC006 18/17 Q1016 BECMG 11005KT NSC
01:30
I
18 °C 10 km+ 500 ft 260°   260° 14 kt METAR LFBZ 212330Z AUTO 26014KT 220V280 9999 BKN005 OVC180 18/17 Q1015 BECMG 11005KT NSC
01:00
L
18 °C 10 km+ 400 ft 270°   270° 9 kt METAR LFBZ 212300Z AUTO 27009KT 9999 BKN004 BKN180 18/17 Q1015 TEMPO 27015G25KT BECMG NSC
00:30
L
18 °C 10 km+ 400 ft 260°   260° 11 kt METAR LFBZ 212230Z AUTO 26011KT 220V290 9999 BKN004 BKN180 18/18 Q1015 BECMG 11005KT NSC
00:00
L
18 °C 10 km+ 300 ft 260°   260° 9 kt METAR LFBZ 212200Z AUTO 26009KT 220V290 9999 BKN003 18/18 Q1015 TEMPO 27015G25KT BECMG NSC

21 maggio 2022

Tempo Codice Tempo metereologico Temp. Vista Nuvole Vento METAR/SPECI
23:30
V
18 °C 10 km+ - 250°   250° 5 kt METAR LFBZ 212130Z AUTO 25005KT 220V280 9999 FEW004 18/18 Q1015 TEMPO 27015G25KT BKN007
23:00
V
19 °C 10 km+ - 250°   250° 4 kt METAR LFBZ 212100Z AUTO 25004KT 210V280 CAVOK 19/18 Q1015 TEMPO 27015G25KT BKN007
22:30
V
19 °C 10 km+ - 260°   260° 6 kt METAR LFBZ 212030Z AUTO 26006KT 210V290 CAVOK 19/18 Q1015 TEMPO 27015G25KT BKN007
22:00
V
19 °C 10 km+ - 250°   250° 5 kt METAR LFBZ 212000Z AUTO 25005KT 190V280 CAVOK 19/18 Q1015 TEMPO 27015G25KT BKN007
21:30
V
19 °C 10 km+ - 250°   250° 6 kt METAR LFBZ 211930Z AUTO 25006KT 210V290 CAVOK 19/18 Q1015 TEMPO 27015G25KT BKN007
21:00
V
20 °C 10 km+ - 250°   250° 6 kt METAR LFBZ 211900Z AUTO 25006KT 200V290 CAVOK 20/18 Q1015 TEMPO BKN007
20:30
V
20 °C 10 km+ - 270°   270° 7 kt METAR LFBZ 211830Z AUTO 27007KT CAVOK 20/18 Q1015 TEMPO BKN007
20:00
V
21 °C 10 km+ - 270°   270° 8 kt METAR LFBZ 211800Z AUTO 27008KT CAVOK 21/19 Q1015 NOSIG
19:30
V
22 °C 10 km+ - 300°   300° 9 kt METAR LFBZ 211730Z AUTO 30009KT CAVOK 22/19 Q1015 BECMG BKN008
19:00
V
22 °C 10 km+ - 340°   340° 10 kt METAR LFBZ 211700Z AUTO 34010KT CAVOK 22/19 Q1015 NOSIG
18:30
V
29 °C 10 km+ - 070°   070° 7 kt METAR LFBZ 211630Z AUTO 07007KT 040V110 CAVOK 29/21 Q1014 NOSIG
18:00
V
28 °C 10 km+ - 080°   080° 9 kt METAR LFBZ 211600Z AUTO 08009KT CAVOK 28/21 Q1015 NOSIG
17:30
V
27 °C 10 km+ - Var   Var 3 kt METAR LFBZ 211530Z AUTO VRB03KT CAVOK 27/21 Q1015 NOSIG
17:00
V
26 °C 10 km+ - Var   Var 2 kt METAR LFBZ 211500Z AUTO VRB02KT CAVOK 26/19 Q1015 NOSIG
16:30
V
24 °C 10 km+ - 320°   320° 5 kt METAR LFBZ 211430Z AUTO 32005KT CAVOK 24/18 Q1016 NOSIG
16:00
V
23 °C 10 km+ - 310°   310° 9 kt METAR LFBZ 211400Z AUTO 31009KT 280V340 CAVOK 23/18 Q1017 NOSIG
15:30
V
24 °C 10 km+ - 320°   320° 9 kt METAR LFBZ 211330Z AUTO 32009KT 280V350 CAVOK 24/19 Q1016 NOSIG
15:00
V
25 °C 10 km+ - 330°   330° 8 kt METAR LFBZ 211300Z AUTO 33008KT CAVOK 25/19 Q1017 TEMPO 09010KT
14:30
V
25 °C 10 km+ - 030°   030° 3 kt METAR LFBZ 211230Z AUTO 03003KT 320V130 CAVOK 25/19 Q1017 NOSIG
14:00
V
26 °C 10 km+ - 040°   040° 5 kt METAR LFBZ 211200Z AUTO 04005KT 360V090 CAVOK 26/19 Q1017 NOSIG
13:30
V
26 °C 10 km+ - 030°   030° 6 kt METAR LFBZ 211130Z AUTO 03006KT 350V060 CAVOK 26/19 Q1017 NOSIG
13:00
V
25 °C 10 km+ - 060°   060° 7 kt METAR LFBZ 211100Z AUTO 06007KT 020V090 CAVOK 25/20 Q1017 NOSIG
12:30
V
25 °C 10 km+ - 070°   070° 6 kt METAR LFBZ 211030Z AUTO 07006KT 030V100 CAVOK 25/18 Q1017 NOSIG
12:00
V
24 °C 10 km+ - 050°   050° 4 kt METAR LFBZ 211000Z AUTO 05004KT 010V100 CAVOK 24/18 Q1018 NOSIG
11:30
V
24 °C 10 km+ - 070°   070° 4 kt METAR LFBZ 210930Z AUTO 07004KT 330V110 CAVOK 24/19 Q1018 NOSIG
11:00
V
23 °C 10 km+ - 100°   100° 6 kt METAR LFBZ 210900Z AUTO 10006KT 060V140 CAVOK 23/18 Q1018 NOSIG
10:30
V
22 °C 10 km+ - 090°   090° 7 kt METAR LFBZ 210830Z AUTO 09007KT 060V120 CAVOK 22/18 Q1018 NOSIG
10:00
V
21 °C 10 km+ - 090°   090° 10 kt METAR LFBZ 210800Z AUTO 09010KT CAVOK 21/18 Q1018 NOSIG
09:30
V
20 °C 10 km+ - 100°   100° 11 kt METAR LFBZ 210730Z AUTO 10011KT 070V130 CAVOK 20/17 Q1018 NOSIG
09:00
V
20 °C 10 km+ - 090°   090° 6 kt METAR LFBZ 210700Z AUTO 09006KT 060V170 CAVOK 20/17 Q1018 NOSIG
08:30
V
19 °C 10 km+ - 090°   090° 6 kt METAR LFBZ 210630Z AUTO 09006KT 060V120 9999 FEW014 SCT180 19/17 Q1019 NOSIG
08:00
M
18 °C 10 km+ 1.400 ft 100°   100° 5 kt METAR LFBZ 210600Z AUTO 10005KT 9999 OVC014 18/17 Q1019 BECMG NSC
07:30
M
17 °C 10 km+ 1.600 ft 090°   090° 7 kt METAR LFBZ 210530Z AUTO 09007KT 9999 OVC016 17/16 Q1019 NOSIG
07:00
M
17 °C 10 km+ 1.700 ft 090°   090° 7 kt METAR LFBZ 210500Z AUTO 09007KT 9999 OVC017 17/16 Q1020 NOSIG
06:30
M
17 °C 10 km+ 1.800 ft 080°   080° 6 kt METAR LFBZ 210430Z AUTO 08006KT 9999 OVC018 17/16 Q1020 NOSIG
06:00
M
17 °C 10 km+ 1.900 ft 080°   080° 5 kt METAR LFBZ 210400Z AUTO 08005KT 9999 OVC019 17/16 Q1020 NOSIG
05:30
M
17 °C 10 km+ 1.900 ft 080°   080° 6 kt METAR LFBZ 210330Z AUTO 08006KT 9999 OVC019 17/16 Q1020 NOSIG
05:00
M
17 °C 10 km+ 1.900 ft 070°   070° 7 kt METAR LFBZ 210300Z AUTO 07007KT 9999 OVC019 17/16 Q1021 NOSIG
04:30
M
17 °C 10 km+ 2.000 ft 100°   100° 4 kt METAR LFBZ 210230Z AUTO 10004KT 070V130 9999 OVC020 17/16 Q1021 NOSIG
04:00
M
17 °C 10 km+ 1.900 ft Var   Var 3 kt METAR LFBZ 210200Z AUTO VRB03KT 9999 OVC019 17/16 Q1022 TEMPO 4000 BR BKN005
03:30
M
17 °C 10 km+ 1.600 ft Var   Var 2 kt METAR LFBZ 210130Z AUTO VRB02KT 9999 FEW010 BKN016 OVC022 17/16 Q1022 TEMPO 4000 BR BKN005
03:00
M
17 °C 10 km+ 1.000 ft Var   Var 2 kt METAR LFBZ 210100Z AUTO VRB02KT 9999 BKN010 OVC014 17/16 Q1022 TEMPO 4000 BR
02:30
I
17 °C 7 km 800 ft Var   Var 1 kt METAR LFBZ 210030Z AUTO VRB01KT 7000 OVC008 17/16 Q1023 TEMPO 4000 BR BECMG NSC
02:00
I
17 °C 4,8 km 700 ft 090°   090° 3 kt METAR LFBZ 210000Z AUTO 09003KT 4800 BR OVC007 17/16 Q1023 BECMG 9999 NSW BKN010
01:30
I
17 °C 5 km 800 ft 040°   040° 3 kt METAR LFBZ 202330Z AUTO 04003KT 5000 BR BKN008 OVC013 17/16 Q1024 BECMG BKN010
01:00
M
17 °C 10 km+ 1.200 ft Var   Var 2 kt METAR LFBZ 202300Z AUTO VRB02KT 9999 OVC012 17/16 Q1024 BECMG SCT010 BKN025
00:30
M
17 °C 10 km+ 1.500 ft 300°   300° 3 kt METAR LFBZ 202230Z AUTO 30003KT 9999 SCT010 OVC015 17/16 Q1024 TEMPO BKN010
00:00
M
18 °C 10 km+ 1.400 ft 300°   300° 2 kt METAR LFBZ 202200Z AUTO 30002KT 9999 OVC014 18/16 Q1024 NOSIG

20 maggio 2022

Tempo Codice Tempo metereologico Temp. Vista Nuvole Vento METAR/SPECI
23:30
M
18 °C 10 km+ 1.400 ft Var   Var 2 kt METAR LFBZ 202130Z AUTO VRB02KT 9999 FEW010 BKN014 OVC024 18/16 Q1024 NOSIG
23:00
M
18 °C 10 km+ 1.100 ft 300°   300° 5 kt METAR LFBZ 202100Z AUTO 30005KT 9999 BKN011 OVC024 18/16 Q1024 NOSIG
22:30
M
17 °C 10 km+ 2.400 ft Var   Var 1 kt METAR LFBZ 202030Z AUTO VRB01KT 9999 FEW012 OVC024 17/16 Q1024 TEMPO BKN010
22:00
M
17 °C 10 km+ 2.500 ft Var   Var 1 kt METAR LFBZ 202000Z AUTO VRB01KT 9999 OVC025 17/16 Q1024 TEMPO BKN010
21:30
M
18 °C 10 km+ 2.500 ft Var   Var 2 kt METAR LFBZ 201930Z AUTO VRB02KT 9999 OVC025 18/15 Q1024 TEMPO BKN010
21:00
M
18 °C 10 km+ 2.500 ft 180°   180° 3 kt METAR LFBZ 201900Z AUTO 18003KT 130V250 9999 OVC025 18/15 Q1024 TEMPO BKN010
20:30
M
18 °C 10 km+ 2.500 ft 200°   200° 3 kt METAR LFBZ 201830Z AUTO 20003KT 160V250 9999 OVC025 18/15 Q1024 TEMPO BKN010
20:00
M
18 °C 10 km+ 2.400 ft Var   Var 3 kt METAR LFBZ 201800Z AUTO VRB03KT 9999 FEW016 BKN024 OVC031 18/15 Q1024 TEMPO BKN010
19:30
M
18 °C 10 km+ 2.100 ft Var   Var 2 kt METAR LFBZ 201730Z AUTO VRB02KT 9999 OVC021 18/15 Q1024 TEMPO BKN010
19:00
M
18 °C 10 km+ 1.800 ft 300°   300° 5 kt METAR LFBZ 201700Z AUTO 30005KT 260V330 9999 BKN018 OVC023 18/15 Q1025 TEMPO BKN014
18:30
M
19 °C 10 km+ 2.400 ft 300°   300° 4 kt METAR LFBZ 201630Z AUTO 30004KT 230V340 9999 SCT016 OVC024 19/15 Q1024 TEMPO BKN014
18:00
M
19 °C 10 km+ 2.400 ft 300°   300° 4 kt METAR LFBZ 201600Z AUTO 30004KT 240V320 9999 FEW017 OVC024 19/15 Q1024 TEMPO BKN014
17:30
M
19 °C 10 km+ 2.300 ft 330°   330° 5 kt METAR LFBZ 201530Z AUTO 33005KT 300V360 9999 FEW016 OVC023 19/16 Q1024 NOSIG
17:00
M
19 °C 10 km+ 2.300 ft 320°   320° 6 kt METAR LFBZ 201500Z AUTO 32006KT 9999 SCT015 OVC023 19/15 Q1024 TEMPO BKN014 OVC025
16:30
M
19 °C 10 km+ 1.400 ft 300°   300° 6 kt METAR LFBZ 201430Z AUTO 30006KT 270V330 9999 BKN014 OVC022 19/16 Q1024 BECMG NSC
16:00
M
19 °C 10 km+ 1.500 ft 300°   300° 6 kt METAR LFBZ 201400Z AUTO 30006KT 270V330 9999 BKN015 OVC023 19/15 Q1024 BECMG BKN014 OVC025
15:30
M
19 °C 10 km+ 1.500 ft 310°   310° 8 kt METAR LFBZ 201330Z AUTO 31008KT 9999 BKN015 OVC026 19/16 Q1024 BECMG BKN014 OVC025
15:00
M
19 °C 10 km+ 1.400 ft 280°   280° 7 kt METAR LFBZ 201300Z AUTO 28007KT 240V320 9999 BKN014 OVC026 19/16 Q1024 BECMG NSC
14:30
M
19 °C 10 km+ 1.400 ft 270°   270° 8 kt METAR LFBZ 201230Z AUTO 27008KT 250V310 9999 BKN014 OVC023 19/16 Q1024 BECMG NSC
14:00
M
19 °C 10 km+ 1.400 ft 300°   300° 9 kt METAR LFBZ 201200Z AUTO 30009KT 9999 BKN014 BKN020 OVC027 19/16 Q1024 BECMG BKN020
13:30
M
19 °C 10 km+ 1.100 ft 300°   300° 8 kt METAR LFBZ 201130Z AUTO 30008KT 9999 BKN011 OVC022 19/16 Q1024 BECMG BKN020
13:00
M
18 °C 10 km+ 1.000 ft 300°   300° 11 kt METAR LFBZ 201100Z AUTO 30011KT 9999 BKN010 OVC016 18/16 Q1024 BECMG BKN020
12:30
I
18 °C 10 km+ 900 ft 290°   290° 10 kt METAR LFBZ 201030Z AUTO 29010KT 9999 BKN009 OVC019 18/17 Q1024 BECMG BKN020
12:00
I
19 °C 10 km+ 900 ft 280°   280° 12 kt METAR LFBZ 201000Z AUTO 28012KT 9999 BKN009 OVC013 19/17 Q1023 BECMG BKN015
11:30
I
19 °C 10 km+ 800 ft 280°   280° 12 kt METAR LFBZ 200930Z AUTO 28012KT 9999 BKN008 OVC013 19/17 Q1023 BECMG BKN015
11:00
I
18 °C 10 km+ 800 ft 280°   280° 12 kt METAR LFBZ 200900Z AUTO 28012KT 9999 OVC008 18/17 Q1023 BECMG BKN015
10:30
I
18 °C 10 km+ 800 ft 280°   280° 12 kt METAR LFBZ 200830Z AUTO 28012KT 9999 OVC008 18/17 Q1022 BECMG BKN015
10:00
I
18 °C 10 km+ 800 ft 270°   270° 13 kt METAR LFBZ 200800Z AUTO 27013KT 9999 OVC008 18/17 Q1021 BECMG BKN015
09:30
I
19 °C 10 km+ 800 ft 290°   290° 10 kt METAR LFBZ 200730Z AUTO 29010KT 240V320 9999 OVC008 19/17 Q1020 BECMG BKN015
09:00
I
18 °C 10 km+ 700 ft 290°   290° 9 kt METAR LFBZ 200700Z AUTO 29009KT 250V310 9999 OVC007 18/17 Q1020 BECMG BKN015
08:30
I
18 °C 10 km+ 700 ft 280°   280° 7 kt METAR LFBZ 200630Z AUTO 28007KT 250V310 9999 OVC007 18/17 Q1019 BECMG BKN015
08:00
I
18 °C 10 km+ 700 ft 290°   290° 6 kt METAR LFBZ 200600Z AUTO 29006KT 230V310 9999 OVC007 18/17 Q1019 NOSIG
07:30
I
18 °C 10 km+ 600 ft 290°   290° 8 kt METAR LFBZ 200530Z AUTO 29008KT 9999 OVC006 18/17 Q1018 TEMPO 4000 BR OVC003
07:00
I
18 °C 10 km+ 500 ft 280°   280° 8 kt METAR LFBZ 200500Z AUTO 28008KT 9999 OVC005 18/17 Q1018 TEMPO 4000 BR
Dati più vecchi

Scarica la nostra applicazione

Facile accesso a tutte le previsioni dell'aviazione sul tuo cellulare e tablet.
Con molte caratteristiche non disponibili sul sito web, come il supporto offline e una lista personale di aeroporti.

Noi e le terze parti seguiamo il tuo comportamento in internet sul nostro sito web con i cookie. Se continui, riteniamo che tu sia d'accordo con la nostra politica sui cookie. Per saperne di più